Location: Marcé
(47.5801°N, 0.3280°W)
Time: 19:35:50
(UTC+01:00)

Explorer 7 - Pass Details

Date: 07 December 2021
Orbit: 483 x 674 km, 50.3° (Epoch: 17 January)

Event Time Altitude Azimuth Distance (km) Brightness Sun altitude
Rises 08:02:46 0° 272° (W) 2,798 - -5.6°
Exits shadow 08:03:49 - 273° (W) 2,379 9.5 -5.4°
Reaches altitude 10° 08:05:08 10° 276° (W) 1,865 8.9 -5.2°
Maximum altitude 08:09:19 58° 356° (N) 635 7.0 -4.6°
Drops below altitude 10° 08:13:15 10° 77° (ENE) 1,755 10.2 -4.0°
Sets 08:15:25 0° 81° (E) 2,617 11.2 -3.7°
